STARLINK-31128 (58669 NORAD) Tracking and Keplerian Element Data

This shows tracking and keplerian element data for the satellite.

Feedback or suggestion? Click here.




ElementValue
Catalog58669
NameSTARLINK-31128
Epoch Orbit327
Epoch Day12.91667824
Epoch Year2024
RAAN204.0889
Inclination42.9995
Eccentricity0.0002117
Argument of Perigee276.2887
Mean Anonmoly324.0427
Mean Motion15.74084332
Decay Rate-0.01613546
L11 58669U 23211C 24012.91667824 -.01613546 00000+0 -12309-1 0 9998
L22 58669 42.9995 204.0889 0002117 276.2887 324.0427 15.74084332 3277



Live tracking and technical data element details for STARLINK-31128 (NORAD 58669). STARLINK-31128 can be tracked NOW for your location showing map with azimuth and elevation plus other details from your city location.







IsCatalogInMostPopularTable: catalog: 58669, numindb: 24
Update: records affected: 1



GetName: 58669 STARLINK-31128

Hit Count: updated at: Wed, 17 Apr 2024 02:17:21 GMT